TimeCDT,TemperatureF,Dew PointF,Humidity,Sea Level PressureIn,VisibilityMPH,Wind Direction,Wind SpeedMPH,Gust SpeedMPH,PrecipitationIn,Events,Conditions,WindDirDegrees,DateUTC
12:15 AM,81.9,22.8,11,29.84,10.0,SE,9.2,-,N/A,,Clear,140,2013-05-18 05:15:00
12:35 AM,76.6,23.9,14,29.84,10.0,SE,10.4,-,N/A,,Clear,140,2013-05-18 05:35:00
12:55 AM,75.4,22.1,14,29.84,10.0,SE,9.2,-,N/A,,Clear,140,2013-05-18 05:55:00
1:35 AM,70.7,23.7,17,29.83,10.0,SSE,6.9,-,N/A,,Clear,160,2013-05-18 06:35:00
1:55 AM,68.0,26.2,21,29.83,10.0,South,6.9,-,N/A,,Clear,170,2013-05-18 06:55:00
2:15 AM,69.8,34.9,28,29.82,10.0,South,8.1,-,N/A,,Clear,170,2013-05-18 07:15:00
2:35 AM,66.9,35.1,31,29.82,10.0,SE,5.8,-,N/A,,Clear,140,2013-05-18 07:35:00
2:55 AM,63.9,35.6,35,29.82,10.0,SSE,5.8,-,N/A,,Clear,150,2013-05-18 07:55:00
3:15 AM,64.0,34.7,34,29.82,10.0,South,4.6,-,N/A,,Clear,170,2013-05-18 08:15:00
3:35 AM,62.6,33.4,34,29.82,10.0,South,4.6,-,N/A,,Clear,180,2013-05-18 08:35:00
3:55 AM,60.8,32.5,35,29.82,10.0,West,5.8,-,N/A,,Clear,260,2013-05-18 08:55:00
4:15 AM,58.5,28.2,32,29.82,10.0,WSW,4.6,-,N/A,,Clear,250,2013-05-18 09:15:00
4:35 AM,57.6,26.8,31,29.82,10.0,WSW,3.5,-,N/A,,Clear,250,2013-05-18 09:35:00
4:55 AM,58.5,25.9,29,29.83,10.0,West,5.8,-,N/A,,Clear,270,2013-05-18 09:55:00
5:15 AM,59.7,24.6,26,29.83,10.0,South,6.9,-,N/A,,Clear,190,2013-05-18 10:15:00
5:35 AM,61.5,22.8,23,29.83,10.0,SSW,6.9,-,N/A,,Clear,200,2013-05-18 10:35:00
5:55 AM,62.8,21.7,21,29.83,10.0,SSW,8.1,-,N/A,,Clear,210,2013-05-18 10:55:00
6:15 AM,59.9,24.6,26,29.84,10.0,SW,5.8,-,N/A,,Clear,220,2013-05-18 11:15:00
6:35 AM,59.0,25.5,28,29.84,10.0,WSW,8.1,-,N/A,,Clear,250,2013-05-18 11:35:00
7:15 AM,58.5,27.1,30,29.84,10.0,Calm,Calm,-,N/A,,Clear,0,2013-05-18 12:15:00
7:55 AM,59.5,28.0,30,29.86,10.0,Calm,Calm,-,N/A,,Clear,0,2013-05-18 12:55:00
8:15 AM,65.8,28.6,25,29.86,10.0,Calm,Calm,-,N/A,,Clear,0,2013-05-18 13:15:00
8:35 AM,69.4,29.1,22,29.86,10.0,Calm,Calm,-,N/A,,Clear,0,2013-05-18 13:35:00
9:35 AM,84.0,29.1,14,29.88,10.0,West,20.7,27.6,N/A,,Clear,260,2013-05-18 14:35:00
10:15 AM,87.8,30.4,13,29.88,10.0,WSW,18.4,25.3,N/A,,Clear,250,2013-05-18 15:15:00
11:15 AM,92.3,30.9,11,29.88,10.0,WSW,19.6,25.3,N/A,,Clear,250,2013-05-18 16:15:00
12:15 PM,94.1,31.3,11,29.87,10.0,WSW,18.4,21.9,N/A,,Clear,240,2013-05-18 17:15:00
12:35 PM,94.8,31.3,11,29.86,10.0,West,11.5,23.0,N/A,,Clear,270,2013-05-18 17:35:00
1:35 PM,96.1,31.5,10,29.84,10.0,WSW,9.2,20.7,N/A,,Clear,250,2013-05-18 18:35:00
2:15 PM,96.6,32.0,10,29.83,10.0,WSW,18.4,21.9,N/A,,Clear,240,2013-05-18 19:15:00
2:55 PM,96.6,32.0,10,29.82,10.0,WSW,11.5,19.6,N/A,,Clear,250,2013-05-18 19:55:00
3:35 PM,97.3,32.0,10,29.80,10.0,NW,9.2,17.3,N/A,,Clear,310,2013-05-18 20:35:00
4:35 PM,98.8,30.0,9,29.77,10.0,SSW,11.5,24.2,N/A,,Clear,210,2013-05-18 21:35:00
5:15 PM,98.4,30.4,9,29.77,10.0,WSW,13.8,20.7,N/A,,Clear,250,2013-05-18 22:15:00
5:55 PM,97.7,29.8,9,29.76,10.0,SW,21.9,26.5,N/A,,Clear,230,2013-05-18 22:55:00
6:15 PM,97.2,30.4,9,29.76,10.0,SW,16.1,-,N/A,,Clear,230,2013-05-18 23:15:00
6:35 PM,96.6,30.2,10,29.75,10.0,SW,15.0,-,N/A,,Clear,230,2013-05-18 23:35:00
6:55 PM,95.9,30.4,10,29.75,10.0,WSW,15.0,-,N/A,,Clear,250,2013-05-18 23:55:00
7:55 PM,93.0,30.2,11,29.75,10.0,West,12.7,-,N/A,,Clear,260,2013-05-19 00:55:00
8:35 PM,89.1,29.5,12,29.75,10.0,SW,8.1,-,N/A,,Clear,230,2013-05-19 01:35:00
8:55 PM,83.8,29.8,14,29.76,10.0,SW,8.1,-,N/A,,Clear,220,2013-05-19 01:55:00
9:35 PM,79.9,27.5,15,29.77,10.0,WSW,6.9,-,N/A,,Clear,240,2013-05-19 02:35:00
9:55 PM,76.3,26.8,16,29.77,10.0,West,8.1,-,N/A,,Clear,260,2013-05-19 02:55:00
10:15 PM,75.2,25.3,16,29.77,10.0,West,8.1,-,N/A,,Clear,260,2013-05-19 03:15:00